Meteo Giornale » Osservazioni meteo Gran Bretagna » Lakenheath Royal

ore: 14:55 - Osservazioni Meteo Lakenheath Royal
Lat. 52° 25' N Lon. 0° 34' E Alt. 10 metri s.l.m.

poco_nuvoloso

21 °C

Poco Nuvoloso

Temp. 24 Ore

11 °C

22 °C

Ovest/Sud-Ovest

18.5 Km/h

Dew point 8 °C

Umidità 43 %

Visibilità  10 Km

Il sole sorge alle ore 06:09

Il sole tramonta alle ore 19:46

Data e Ora Cielo e Fenomeni T °C DP °C Um. % Pres. hPa Vis. km Vento km/h
Oggi h: 14:55 poco_nuvoloso Poco Nuvoloso 21 8 43 1019 10 O/SO 18.5
Oggi h: 14:49 sereno Sereno 21 7 40 1019 10 O 18.5
Oggi h: 13:55 sereno Sereno 22 7 37 1019 10 SO 14.8
Oggi h: 12:55 poco_nuvoloso Poco Nuvoloso 21 8 43 1019 10 O/SO 20.3
Oggi h: 11:55 nuvoloso Nuvoloso 20 9 49 1019 10 O 13
Oggi h: 10:55 poco_nuvoloso Poco Nuvoloso 19 10 55 1019 10 O/SO 9.3
Oggi h: 09:55 sereno Sereno 17 11 67 1020 10 O/SO 9.3
Oggi h: 08:55 sereno Sereno 15 11 76 1019 10 O/SO 13
Oggi h: 07:55 sereno Sereno 14 11 82 1019 10 O/SO 11.1
Oggi h: 06:55 sereno Sereno 12 10 87 1019 10 SO 11.1
Oggi h: 05:55 sereno Sereno 11 9 87 1018 10 S/SO 7.4
Oggi h: 04:55 sereno Sereno 12 9 81 1018 10 SO 9.3
Oggi h: 03:55 sereno Sereno 12 9 81 1018 10 SO 9.3
Oggi h: 02:55 sereno Sereno 13 10 81 1018 10 O/SO 9.3
Oggi h: 01:55 nuvoloso Nuvoloso 13 10 81 1018 10 O/SO 11.1
Oggi h: 00:55 sereno Sereno 14 10 76 1017 10 O/SO 13
Ieri h: 23:55 molto_nuvoloso Molto Nuvoloso 16 11 72 1017 10 O 9.3
Ieri h: 22:55 molto_nuvoloso Molto Nuvoloso 17 11 67 1017 10 O/NO 11.1
Ieri h: 21:55 sereno Sereno 17 11 67 1016 10 O 14.8
Ieri h: 20:55 molto_nuvoloso Molto Nuvoloso 19 11 59 1016 10 O/NO 14.8
Ieri h: 19:55 nuvoloso Nuvoloso 20 11 56 1014 10 O 18.5
Ieri h: 18:55 nuvoloso Nuvoloso 21 11 52 1014 10 O 14.8
Ieri h: 17:55 sereno Sereno 22 12 53 1012 10 O/NO 20.3
Ieri h: 16:55 poco_nuvoloso Poco Nuvoloso 22 13 56 1012 10 O/NO 24